#timestamp,LO_Frequency,Hit,StdDev 
1649592015.1,286047634.5,N
1649592016.0,286047634.5,N
1649592035.8,286047636.3,N
1649592055.7,286047634.9,N
1649592075.5,286047635.0,N
1649592095.3,286047637.5,N
1649592115.2,286047637.8,N
1649592135.0,286047636.8,N
1649592135.9,286047636.8,N
1649592155.8,286047638.8,N
1649592175.6,286047637.4,N
1649592195.4,286047637.6,N
1649592215.3,286047635.1,N
1649592235.1,286047635.1,N
1649592255.8,286047637.3,N
1649592275.7,286047637.8,N
1649592295.5,286047637.6,N
1649592315.4,286047636.9,N
1649592335.2,286047637.6,N
1649592355.0,286047637.5,N
1649592355.9,286047637.5,N
1649592375.8,286047637.6,N
1649592395.6,286047637.5,N
1649592415.4,286047637.5,N
1649592435.3,286047635.1,N
1649592455.1,286047635.4,N
1649592475.9,286047637.9,N
1649592495.7,286047637.5,N
1649592515.5,286047637.6,Y
1649592535.4,286046999.8,P
1649592555.2,286047000.0,N
1649592575.1,286047002.4,N
1649592576.0,286047002.4,N
1649592595.8,286046999.8,N
1649592615.6,286047000.4,N
1649592635.5,286047000.5,N
1649592655.3,286047001.1,N
1649592675.1,286046999.1,N
1649592695.9,286046998.1,N
1649592715.7,286046999.5,N
1649592735.6,286046999.0,N
1649592755.4,286046999.5,N
1649592775.2,286046996.9,N
1649592795.1,286046999.4,N
1649592796.0,286046999.4,N
1649592815.8,286046999.1,N
1649592835.7,286046999.0,N
1649592855.5,286046998.5,N
1649592875.3,286047001.2,N
1649592895.2,286046998.9,N
1649592915.9,286046998.8,N
1649592935.7,286047011.9,N
1649592955.6,286046998.4,N
1649592975.4,286046998.9,N
1649592995.3,286046997.1,N
1649593015.1,286046999.5,N
1649593016.0,286046999.5,N
1649593035.8,286046998.6,N
1649593055.7,286046999.1,N
1649593075.5,286046996.8,N
1649593095.3,286046999.5,N
1649593115.2,286046996.6,N
1649593135.0,286047000.8,N
1649593135.9,286047000.8,N
1649593155.8,286046998.5,N
1649593175.6,286046998.9,N
1649593195.4,286046996.6,N
1649593215.3,286046999.4,N
1649593235.1,286046998.7,N
1649593255.9,286046998.5,N
1649593275.7,286047000.2,N
1649593295.5,286047000.0,N
1649593315.4,286047000.2,N
1649593335.2,286047000.3,N
1649593355.0,286046998.1,N
1649593355.9,286046998.1,N
1649593375.8,286047002.7,N
1649593395.6,286047000.7,N
1649593415.5,286047000.3,N
1649593435.3,286046998.3,N
1649593455.1,286046998.4,N
1649593475.9,286046998.8,N
1649593495.7,286046999.4,N
1649593515.5,286046998.4,N
1649593535.4,286047000.6,N
1649593555.2,286047001.0,N
1649593575.1,286047002.4,N
1649593576.0,286047002.4,N
1649593595.8,286047002.6,N
1649593615.6,286047001.1,N
1649593635.5,286046998.3,N
1649593655.3,286047001.2,N
1649593675.1,286046996.9,N
1649593695.9,286046997.1,N
1649593715.7,286046996.8,N
1649593735.6,286046996.9,N
1649593755.4,286047000.5,N
1649593775.2,286047000.7,N
1649593795.1,286047002.7,N
1649593796.0,286047002.7,N
1649593815.8,286047001.4,N
1649593835.7,286047002.5,N
1649593855.5,286047001.4,N
1649593875.3,286047002.1,N
1649593895.2,286047002.7,N
1649593915.9,286047000.1,N
1649593935.7,286047002.5,N
1649593955.6,286047001.4,N
1649593975.4,286047001.3,N
1649593995.3,286047002.2,N
1649594015.1,286047002.1,N
1649594016.0,286047002.1,N
1649594035.8,286047002.3,N
1649594055.7,286047001.4,N
1649594075.5,286047001.9,N
1649594095.3,286047001.3,N
1649594115.2,286047002.3,N
1649594135.0,286047002.5,N
1649594135.9,286047002.5,N
1649594155.8,286046998.5,N
1649594175.6,286047000.6,N
1649594195.4,286047000.8,N
1649594215.3,286046998.5,N
1649594235.1,286047001.1,N
1649594255.9,286046998.3,N
1649594275.7,286047001.2,N
1649594295.5,286047000.5,N
1649594315.4,286047002.2,N
1649594335.2,286047002.2,N
1649594355.0,286047001.1,N
1649594355.9,286047001.1,N
1649594375.8,286047000.8,N
1649594395.6,286047001.0,N
1649594415.5,286047000.8,N
1649594435.3,286047000.8,N
1649594455.1,286047000.3,N
1649594475.9,286046999.8,N
1649594495.7,286046998.4,N
1649594515.6,286046999.5,N
1649594535.4,286046996.5,N
1649594555.2,286046999.2,N
1649594575.1,286046999.0,N
1649594576.0,286046999.0,N
1649594595.8,286046998.3,N
1649594615.6,286046999.2,N
1649594635.5,286047000.2,N
1649594655.3,286047000.3,N
1649594675.2,286046999.9,N
1649594695.9,286047000.3,N
1649594715.7,286046999.3,N
1649594735.6,286046998.0,N
1649594755.4,286046997.7,N
1649594775.3,286047000.2,N
1649594795.1,286046998.3,N
1649594796.0,286046998.3,N
1649594815.8,286046998.1,N
1649594835.7,286047000.5,N
1649594855.5,286047000.6,N
1649594875.4,286046999.8,N
1649594895.2,286046999.8,N
1649594915.0,286047002.4,N
1649594915.9,286047002.4,N
1649594935.8,286047000.1,N
1649594955.6,286047002.4,N
1649594975.4,286047002.2,N
1649594995.3,286047002.4,N
1649595015.1,286047000.9,N
1649595035.9,286047000.6,N
1649595055.7,286046998.8,N
1649595075.5,286046999.1,N
1649595095.4,286046998.5,N
1649595115.2,286046998.2,N
1649595135.1,286047000.0,N
1649595136.0,286047000.0,N
1649595155.8,286047002.8,N
1649595175.6,286047002.7,N
1649595195.5,286047002.2,N
1649595215.3,286047004.4,N
1649595235.1,286047002.7,N
1649595255.9,286047002.0,N
1649595275.7,286047000.0,N
1649595295.6,286047002.4,N
1649595315.4,286047002.0,N
1649595335.2,286047002.0,N
1649595355.1,286047000.0,N
1649595356.0,286047000.0,N
1649595375.8,286047002.8,N
1649595395.7,286047001.9,N
1649595415.5,286047004.0,N
1649595435.3,286047003.5,N
1649595455.2,286047004.2,N
1649595475.0,286047004.0,N
1649595475.9,286047004.0,N
1649595495.7,286047002.2,N
1649595515.6,286047002.6,N
1649595535.4,286047000.9,N
1649595555.3,286046999.6,N
1649595575.1,286046999.2,N
1649595595.8,286047000.7,N
